Regional Weather Roundup
Issued by NWS

Home | Current Version | Previous Version | Text Only | Print | Product List | Glossary On
Versions: 1 2 3 4 5 6 7 8 9 10 11 12 13 14 15 16 17 18 19 20 21 22 23 24 25 26 27 28 29 30 31 32 33 34 35 36 37 38 39 40 41 42 43 44 45 46 47 48 49 50
000
ASCA44 KEWX 200320
RWRMX

LATIN AMERICA AND CARIBBEAN REGIONAL WEATHER ROUNDUP
NATIONAL WEATHER SERVICE AUSTIN/SAN ANTONIO TX
900 PM CST SUN NOV 19 2017

NOTE: "FAIR" INDICATED FEW OR NO CLOUDS BELOW 12,000 FEET WITH NO
SIGNIFICANT WEATHER AND/OR OBSTRUCTIONS TO VISIBILITY.

BAJA CALIFORNIA

CITY           SKY/WX    TMP DP  RH WIND       PRES   REMARKS
LA PAZ         CLEAR     75  63  64 CALM      29.92R
MEXICALI       CLEAR     63  21  20 W7        29.99R
S.J. DEL CABO  PTCLDY    73  64  73 W7        29.92R
TIJUANA        PTCLDY    59  46  63 CALM      30.01

NORTHWESTERN MEXICO

CITY           SKY/WX    TMP DP  RH WIND       PRES   REMARKS
CULIACAN       CLEAR     73  68  83 CALM      29.86R
DURANGO        CLEAR     63  37  39 W6        30.20R
GUAYMAS          N/A    N/A N/A N/A MISG        N/A
HERMOSILLO     CLEAR     70  39  32 CALM      29.91R
CD. JUAREZ     CLEAR     52  14  22 NE8       30.15R
LOS MOCHIS     CLEAR     72  61  68 NW9       29.88R

NORTHEASTERN MEXICO

CITY           SKY/WX    TMP DP  RH WIND       PRES   REMARKS
CHIHUAHUA      CLEAR     48  30  49 CALM      30.13R
MONCLOVA         N/A    N/A N/A N/A MISG        N/A
MONTERREY      PTCLDY    52  34  50 SE5       30.23S
REYNOSA          N/A    N/A N/A N/A MISG        N/A
SALTILLO         N/A    N/A N/A N/A MISG        N/A
TORREON        PTCLDY    64  36  34 N5        30.09S
CD. VICTORIA   PTCLDY    61  39  44 MISG      30.26R

WESTERN MEXICO

CITY           SKY/WX    TMP DP  RH WIND       PRES   REMARKS
AGUASCALIENTES CLEAR     59  39  47 NE8       30.24R
COLIMA         PTCLDY    72  70  94 CALM      30.02R
DEL BAJIO      CLEAR     63  46  55 N8        30.28R
GUADALAJARA      N/A    N/A N/A N/A MISG        N/A
MAZATLAN       PTCLDY    73  68  83 CALM      29.88R
P. VALLARTA    CLOUDY    82  73  74 SW2       29.89
URUAPAN          N/A    N/A N/A N/A MISG        N/A
ZACATECAS      CLEAR     59  43  55 SE12G23   30.26R

CENTRAL MEXICO

CITY           SKY/WX    TMP DP  RH WIND       PRES   REMARKS
CUERNAVACA       N/A    N/A N/A N/A MISG        N/A
MEXICO CITY    PTCLDY    57  45  62 NW8       30.36R
MORELIA        CLEAR     59  45  58 CALM      30.23R
POZA RICA        N/A    N/A N/A N/A MISG        N/A
QUERETARO      CLEAR     54  46  76 E10       30.36R
S. LUIS POTOSI CLEAR     50  39  66 CALM      30.30R
TAMPICO        CLOUDY    66  45  45 MISG      30.23R
TOLUCA         PTCLDY    50  43  76 E3        30.39R

SOUTHERN MEXICO

CITY           SKY/WX    TMP DP  RH WIND       PRES   REMARKS
ACAPULCO       CLEAR     81  73  78 CALM      29.88R
B. DE HUATULCO CLEAR    N/A N/A N/A CALM      29.93
P. ESCONDIDO     N/A    N/A N/A N/A MISG        N/A
VERACRUZ       PTCLDY    72  59  64 N12G23    30.11R
ZIHUATANEJO    PTCLDY    82  73  74 E3        29.88R

YUCATAN PENINSULA

CITY           SKY/WX    TMP DP  RH WIND       PRES   REMARKS
CAMPECHE       PTCLDY    77  72  83 N12       29.99R
CANCUN         PTCLDY    70  70 100 NW5       30.00R
CHETUMAL       PTCLDY    72  72 100 CALM      29.99
CD. DEL CARMEN   N/A    N/A N/A N/A MISG        N/A
COZUMEL        PTCLDY    77  70  78 N5        29.98R
MERIDA         CLEAR     72  66  83 N5        30.02R
MINATITLAN       N/A    N/A N/A N/A MISG        N/A
TAPACHULA      PTCLDY    77  73  88 CALM      29.87R
TUX. GUTIERREZ CLEAR     72  61  68 NW23      30.05R
VILLAHERMOSA   PTCLDY    68  68 100 CALM      30.08R

CENTRAL AMERICA

CITY           SKY/WX    TMP DP  RH WIND       PRES   REMARKS
MANAGUA        PTCLDY    75  70  83 S7        29.86R

CARIBBEAN

CITY           SKY/WX    TMP DP  RH WIND       PRES   REMARKS
ARUBA          PTCLDY    81  77  89 CALM      29.83R
CURACAO        PTCLDY    81  77  89 SE7       29.83S
KINGSTON       PTCLDY    81  75  83 NE6       29.83S
NASSAU         PTCLDY    77  72  83 CALM      29.97R
SAN JUAN       PTCLDY    77  77 100 SE5       29.84F
SANTO DOMINGO  LGT RAIN  75  75 100 VRB3      29.86S
ST. THOMAS       N/A    N/A N/A N/A MISG      29.89

$$




USA.gov is the U.S. government's official web portal to all federal, state and local government web resources and services.